Regional Weather Roundup
Issued by NWS

Home | Current Version | Previous Version | Graphics & Text | Print | Product List | Glossary On
Versions: 1 2 3 4 5 6 7 8 9 10 11 12 13 14 15 16 17 18 19 20 21 22 23 24 25 26 27 28 29 30 31 32 33 34 35 36 37 38 39 40 41 42 43 44 45 46 47 48 49 50
209
ASUS45 KBOU 261707
RWRCO

WEATHER ROUNDUP FOR COLORADO
NATIONAL WEATHER SERVICE DENVER/BOULDER CO
1100 AM MDT FRI AUG 26 2016

NOTE: "FAIR" INDICATES FEW OR NO CLOUDS BELOW 12000 FEET WITH NO
SIGNIFICANT WEATHER AND/OR OBSTRUCTIONS TO VISIBILITY.

COZ001>005-013-030-031-261800-
...NORTHWEST COLORADO...

CITY           SKY/WX    TMP DP  RH WIND       PRES   REMARKS
CRAIG          FAIR      67  39  35 N3        30.22F
HAYDEN         FAIR      63  37  39 CALM      30.24F
MEEKER         FAIR      66  43  43 VRB5      30.23F
MOUNT WERNER   NOT AVBL
STEAMBOAT SPGS FAIR      61  39  44 W3        30.25F
WALDEN         FAIR      59  34  38 S9        30.30F
$$

COZ006>008-011-261800-
...WEST CENTRAL VALLEYS...

CITY           SKY/WX    TMP DP  RH WIND       PRES   REMARKS
GRAND JUNCTION FAIR      66  47  50 E6        30.20F
MONTROSE       FAIR      64  47  53 W3        30.25F
EAGLE          MOSUNNY   59  43  55 CALM      30.29F
RIFLE          FAIR      62  50  64 CALM      30.23F
DELTA          FAIR      68  46  45 E3        30.23
NUCLA          FAIR     N/A N/A N/A CALM      30.31S
$$

COZ017>023-064>068-261800-
...SOUTHWEST COLORADO...

CITY           SKY/WX    TMP DP  RH WIND       PRES   REMARKS
DURANGO        FAIR      62  47  57 VRB5      30.31F
CORTEZ         FAIR      64  51  62 CALM      30.27F
PAGOSA SPRINGS FAIR      56  46  67 E3        30.38S
TELLURIDE      FAIR      57  42  57 CALM      30.41F
WOLF CREEK PAS FOG       36  36 100 SW13      30.57R VSB<1/4
$$

COZ009-010-012-014-032>034-037-058>063-261800-
...CENTRAL COLORADO...

CITY           SKY/WX    TMP DP  RH WIND       PRES   REMARKS
ASPEN          FAIR      61  42  49 VRB3      30.31F
BUENA VISTA    FAIR      58  42  54 S5        30.32F
COPPER MTN     CLOUDY    41  32  70 W5        30.52S
BERTHOUD PASS  PTSUNNY   36  23  60 NE7G20    30.52S
COTTONWOOD PAS CLOUDY    55  43  62 W3        30.42S
GUNNISON       FAIR      54  41  62 CALM      30.38F
KREMMLING      FAIR      59  37  44 SE3       30.31F
LEADVILLE      FAIR      48  35  60 MISG      30.41S
MONARCH PASS   FOG       36  36 100 SW10G17   30.63R VSB<1/4
SALIDA         FAIR      61  44  53 CALM      30.37F
SUNLIGHT       PTSUNNY   48  43  81 CALM      30.50S
WILKERSON PASS FAIR      43  37  81 W6        30.50R
$$

COZ069>075-261800-
...SAN LUIS VALLEY/SANGRE DE CRISTO MOUNTAINS...

CITY           SKY/WX    TMP DP  RH WIND       PRES   REMARKS
ALAMOSA        CLOUDY    55  46  71 NE6       30.33F
LA VETA PASS   PTSUNNY   46  43  87 S9G23     30.42S
SAGUACHE       FAIR      57  43  58 NW7       30.36S
$$

COZ035-036-038>040-261800-
...NORTHERN COLORADO FRONT RANGE...

CITY           SKY/WX    TMP DP  RH WIND       PRES   REMARKS
DENVER INTL AP FAIR      63  51  65 VRB5      30.17F
DMNS CITY PARK   N/A     64  49  58 E8        30.18S
AURORA         MOSUNNY   62  49  61 VRB3      30.19F
FRONT RANGE AP PTSUNNY   64  54  68 W9        30.19S
ERIE MUNI ARPT FAIR      67  49  53 E6        30.16F
BOULDER MUN AP FAIR      64  50  59 CALM      30.15F
CENTENNIAL     PTSUNNY   63  48  58 VRB5      30.20S
BROOMFIELD     PTSUNNY   64  50  59 NW5       30.18F
FORT COLLINS   FAIR      66  50  55 E5        30.14F
LONGMONT       FAIR      70  51  51 E6        30.16F HAZE
$$

COZ041-046-047-076>085-087-088-261800-
...PIKES PEAK/PALMER DIVIDE AND SOUTHERN FOOTHILLS...

CITY           SKY/WX    TMP DP  RH WIND       PRES   REMARKS
COLO. SPRINGS  PTSUNNY   61  49  64 S5        30.23S
A. F. ACADEMY  MOSUNNY   61  49  64 VRB3      30.22S
SCHRIEVER AFB  NOT AVBL
ELLICOTT       NOT AVBL
FALCON         FAIR      62  49  63 S5        30.25F
FORT CARSON    FAIR      61  51  68 E6        30.20F
LIMON          CLOUDY    63  52  67 SW10      30.18F
MONUMENT HILL  FAIR      63  41  45 NW6       30.26S
TRINIDAD       CLOUDY    66  48  52 SE8       30.21S
$$

COZ042>045-048>051-090-091-261800-
...NORTHEAST COLORADO...

CITY           SKY/WX    TMP DP  RH WIND       PRES   REMARKS
GREELEY ARPT   FAIR      64  54  68 CALM      30.15F
AKRON          CLOUDY    60  56  86 SE14      30.16S
BURLINGTON     CLOUDY    65  56  72 SE12      30.16F
WRAY           CLOUDY    68  55  64 S7        30.14F
STERLING       CLOUDY    64  57  77 S8        30.13F
HOLYOKE        PTSUNNY   68  54  60 S10       30.14F
FORT MORGAN    PTSUNNY   66  55  67 SE12      30.15S
$$

COZ086-089-092>099-261800-
...SOUTHEAST COLORADO...

CITY           SKY/WX    TMP DP  RH WIND       PRES   REMARKS
PUEBLO         PTSUNNY   64  52  64 SE5       30.16F
LA JUNTA       PTSUNNY   67  59  75 SE5       30.15S
LAMAR          FAIR      76  58  53 SE12G20   30.10F
SPRINGFIELD      N/A     71  57  61 S14       30.14F
$$




USA.gov is the U.S. government's official web portal to all federal, state and local government web resources and services.